Regional Weather Roundup
Issued by NWS Boston, MA

Home | Current Version | Previous Version | Text Only | Print | Product List | Glossary On
Versions: 1 2 3 4 5 6 7 8 9 10 11 12 13 14 15 16 17 18 19 20 21 22 23 24 25 26 27 28 29 30 31 32 33 34 35 36 37 38 39 40 41 42 43 44 45 46 47 48 49 50
000
ASUS41 KBOX 010810
RWRBOX

REGIONAL WEATHER ROUNDUP
NATIONAL WEATHER SERVICE TAUNTON MA
400 AM EDT TUE SEP 01 2015

NOTE:  "FAIR" INDICATES FEW OR NO CLOUDS BELOW 12,000 FEET WITH NO
SIGNIFICANT WEATHER AND/OR OBSTRUCTIONS TO VISIBILITY.  THE FOLLOWING
OBSERVATION LOCATIONS DO NOT REPORT PRESENT WEATHER...PROVINCETOWN...
SMITHFIELD...BLOCK ISLAND...KEENE...AND OXFORD.

MAZALL-010900-
EASTERN MASSACHUSETTS

CITY           SKY/WX    TMP DP  RH WIND       PRES   REMARKS
BOSTON         PTCLDY    73  62  68 W7        29.98R
BEVERLY        CLEAR     65  60  84 NW6       29.97R
LAWRENCE       CLEAR     66  61  84 CALM      30.00R
BEDFORD        CLEAR     63  60  90 SW3       29.97S
BLUE HILL        N/A     67  62  84 NW12      29.98F
NORWOOD        CLEAR     59  58  96 CALM      29.98R FOG
MARSHFIELD     CLEAR     73  64  73 NW3       29.98S
PLYMOUTH       CLEAR     65  63  93 CALM      29.97S
TAUNTON        FOG       62  60  93 CALM      29.97S VSB 1/2
NEW BEDFORD    CLEAR     67  64  90 CALM      29.96S
$$

MAZALL-010900-
CAPE COD AND THE ISLANDS

CITY           SKY/WX    TMP DP  RH WIND       PRES   REMARKS
FALMOUTH       MOCLDY    68  64  88 N5        29.96S
HYANNIS        CLEAR     72  64  76 N6        29.94F
CHATHAM        CLEAR     71  66  84 CALM      29.96S
PROVINCETOWN     N/A     70  63  78 NW5       29.96S
NANTUCKET      CLEAR     74  69  85 N9        29.95S
MARTHAS VNYRD  CLEAR     69  66  90 NW5       29.96S
$$

MAZALL-010900-
CENTRAL AND WESTERN MASSACHUSETTS

CITY           SKY/WX    TMP DP  RH WIND       PRES   REMARKS
WORCESTER      CLEAR     70  59  68 NW8       30.02S
FITCHBURG      CLEAR     63  60  90 CALM      30.00F
ORANGE         CLEAR     60  58  92 CALM      30.02S FOG
SPRINGFIELD    CLEAR     61  60  96 NE2       29.99S
WESTFIELD      CLEAR     68  61  78 N3        30.00S
NORTH ADAMS    PTCLDY    62  60  93 CALM      30.04R
PITTSFIELD     CLEAR     62  60  93 SW5       30.04S
$$

RIZALL-010900-
RHODE ISLAND

CITY           SKY/WX    TMP DP  RH WIND       PRES   REMARKS
PROVIDENCE     CLEAR     73  62  68 NW5       29.98S
NEWPORT        CLEAR     71  63  75 N3        29.97S
BLOCK ISLAND   CLEAR     72  66  83 NW5       29.98S
SMITHFIELD     CLEAR     63  61  94 CALM      29.99S
WESTERLY       CLEAR     73  63  70 N7        29.98S
$$

CTZALL-010900-
CONNECTICUT

CITY           SKY/WX    TMP DP  RH WIND       PRES   REMARKS
BRADLEY INTL   CLEAR     65  62  90 CALM      29.99S
HARTFORD       CLEAR     69  65  86 CALM      29.99S
BRIDGEPORT     CLEAR     75  65  70 CALM      29.99S
DANBURY        CLEAR     65  62  90 CALM      30.03S FOG
GROTON         CLEAR     71  64  78 N6        29.97S
NEW HAVEN      CLEAR     74  65  73 NW7       30.00R
CHESTER        NOT AVBL
MERIDEN        CLEAR     66  63  90 CALM      30.00S
WILLIMANTIC    CLEAR     65  61  87 NE3       30.00S
OXFORD         CLEAR     66  59  77 N5        30.04R
$$

MEZ002-015-021-024-NHZ003-005-008-011-012-014-VTZ005-008-010900-
NORTHERN NEW ENGLAND

CITY           SKY/WX    TMP DP  RH WIND       PRES   REMARKS
PORTLAND ME    CLEAR     64  60  87 SW7       29.97R
BANGOR ME      CLEAR     61  54  77 W8        29.94R
CONCORD NH     CLEAR     60  55  83 CALM      30.00R HAZE
MANCHESTER NH  CLEAR     67  60  78 CALM      29.98R
NASHUA NH      NOT AVBL
PORTSMOUTH NH  PTCLDY    65  62  88 W3        29.97R
JAFFREY NH     CLEAR     59  58  96 CALM      30.03S FOG
KEENE NH       MOCLDY    59  54  82 CALM      30.03R VSB<1/4
BURLINGTON VT  CLEAR     61  58  90 CALM      30.03R FOG
MT. WASHINGTON FOG       45  45 100 NW36G46     N/A  VSB 1/8
$$

NYZ052-076-010900-
EASTERN NEW YORK

CITY           SKY/WX    TMP DP  RH WIND       PRES   REMARKS
ALBANY         PTCLDY    65  62  90 CALM      30.03R
NEW YORK CITY  PTCLDY    79  67  66 N3        30.00R
$$

ANZALL-010900-
MARINE OBSERVATIONS

STATION/POSITION TIME  TEMP    WIND        PRES    VSBY  WAVE
                       AIR SEA DIR/SP/G                  HT/PER
                 (UTC) (F)     (DEG/KT/KT) (MB)    (MI)  (FT/S)
BOSTON BUOY      0750   71 70  300/  6/  8 1014.7R         1
BUZZARDS BAY     0700          330/ 10/ 11 1015.3S
NANTUCKET SOUND  0750   76 75  350/ 10/ 14 1013.8S         1/ 3
MASS BAY-STELLWA 0704   70 69  310/  6/  6   N/A    1 7/8  1/11
ISLE OF SHOALS   0800   67     290/  9/ 10 1014.3R
S OF BLOCK IS    0738      72                N/A           4/ 6
$$

......................KEY.........................
  SKY/WX - SKY CONDITION/PRESENT WEATHER
  TMP    - TEMPERATURE IN FAHRENHEIT
  DWPT   - DEWPOINT IN FAHRENHEIT
  RH     - RELATIVE HUMIDITY IN PERCENT
  WIND   - DIRECTION AND SPEED IN MPH
  PRES   - MEAN SEA LEVEL PRESSURE IN INCHES OF HG
  WCI    - WIND CHILL INDEX
  VSB    - VISIBILITY IN MILES
  HX     - HEAT INDEX
  TC     - TEMPERATURE IN CELSIUS
  VRB    - VARIABLE WIND DIRECTION
  N/A    - NOT AVAILABLE


USA.gov is the U.S. government's official web portal to all federal, state and local government web resources and services.